Location: Unspecified
(50.7693°N, 0.0000°E)
Time: 10:28:43
(UTC+00:00)

Transit 2A - Pass Details

Date: 30 June 2019
Orbit: 596 x 962 km, 66.7° (Epoch: 16 August)

Event Time Altitude Azimuth Distance (km) Brightness Sun altitude
Rises 06:17:44 0° 322° (NW) 3,483 9.2 19.9°
Reaches altitude 10° 06:20:22 10° 325° (NW) 2,488 8.5 20.3°
Maximum altitude 06:26:04 68° 48° (NE) 851 7.0 21.2°
Drops below altitude 10° 06:31:09 10° 132° (SE) 2,225 9.0 22.0°
Sets 06:33:24 0° 135° (SE) 3,088 9.6 22.4°
